Find Starlink 32289

NORAD ID: 60737 Int'l Des: 2024-152 Owner: SPXS Country: US Constellation: starlink operational
LEOCIRCULAR

当前视图

正在加载3D地球...

About Starlink 32289

Starlink 32289 (NORAD 60737) is a starlink constellation satellite (v2 mini) launched Aug 28, 2024 by SPXS of US. It operates in LEO, CIRCULAR orbit with a mass of 730.00 kg.

即将过境

Passes for default location (London). Set your location on the main map for personalized predictions.

高度历史

Loading altitude history...

两行轨道根数

1 60737U 24152T 26237.29786257 -.00000120 00000-0 75895-5 0 9996
2 60737 53.1579 203.9760 0001483 92.9243 267.1929 15.34386949112683
Epoch: Aug 25, 2026 • Age: 6 hours

当前状态

高度 468.0 km
远地点 / 近地点 N/A
速度 7.63 km/s
星下点 -18.17°S, 127.52°W
发射日期 Aug 28, 2024
运行时间 1.9 years
类型 internet

技术详情

分类 Payload
质量 730.00 kg
干质量 700.00 kg
总质量 730.00 kg
长度 0.30 m
直径 4.10 m
跨度 29.00 m
形状 Box + pan
制造商 SPXS
平台类型 Starlink V2M
阶段状态 In Orbit
所有者/国家 SPXS/US

Most Searched